Regional Weather Roundup
Issued by NWS

Home | Current Version | Previous Version | Graphics & Text | Print | Product List | Glossary On
Versions: 1 2 3 4 5 6 7 8 9 10 11 12 13 14 15 16 17 18 19 20 21 22 23 24 25 26 27 28 29 30 31 32 33 34 35 36 37 38 39 40 41 42 43 44 45 46 47 48 49 50
000
ASUS43 KFSD 271610
RWRSD

WEATHER ROUNDUP FOR SOUTH DAKOTA
NATIONAL WEATHER SERVICE SIOUX FALLS SD
1100 AM CDT MON APR 27 2015

NOTE: "FAIR" INDICATES FEW OR NO CLOUDS BELOW 12,000 FEET WITH NO
SIGNIFICANT WEATHER AND/OR OBSTRUCTIONS TO VISIBILITY.


SDZ001>005-009-010-012>017-271700-
NORTHWEST AND NORTH CENTRAL SOUTH DAKOTA

CITY           SKY/WX    TMP DP  RH WIND       PRES   REMARKS
BUFFALO          N/A     41  39  93 NW16      30.26R
FAITH            N/A     46  41  82 NW15      30.28R
MOBRIDGE       MOSUNNY   56  43  61 NW7       30.23R
$$

SDZ012>016-024>037-041>051-057-063-072>074-271700-
SOUTHWEST AND SOUTH CENTRAL SOUTH DAKOTA

CITY           SKY/WX    TMP DP  RH WIND       PRES   REMARKS
RAPID CTY ARPT CLOUDY    43  39  86 N26       30.29R
PIERRE         SUNNY     61  34  36 W6        30.23R
CUSTER         LGT RAIN  42  37  82 S5        30.27S
ELLSWORTH AFB  CLOUDY    42  38  86 N21       30.29R
PHILIP         PTSUNNY   57  45  64 NW16      30.26R
PINE RIDGE     CLOUDY    50  42  74 N10       30.27R
SPEARFISH      LGT RAIN  37  37 100 NW10G16   30.34S
WINNER         FAIR      64  32  30 N7        30.23F
$$

SDZ004>011-016>023-039-040-271700-
NORTHEAST SOUTH DAKOTA

CITY           SKY/WX    TMP DP  RH WIND       PRES   REMARKS
ABERDEEN       SUNNY     63  22  20 SE5       30.24F
WATERTOWN      NOT AVBL
SISSETON         N/A     64  21  19 NW6       30.24S
$$

SDZ017-020-022-023-036>040-048>070-271700-
SOUTHEAST SOUTH DAKOTA

CITY           SKY/WX    TMP DP  RH WIND       PRES   REMARKS
SIOUX FALLS    MOSUNNY   60  28  29 CALM      30.23F
HURON          SUNNY     60  31  33 CALM      30.24S
CHAMBERLAIN    SUNNY     59  33  37 N3        30.24S
MITCHELL       SUNNY     59  38  45 VRB3      30.24S
YANKTON        SUNNY     59  36  41 SE7       30.22S
$$

ABBREVIATIONS USED IN REMARKS
   TC - TEMPERATURE IN CELSIUS
  WCI - WIND CHILL INDEX
   HX - HEAT INDEX
  VSB - VISIBILITY




USA.gov is the U.S. government's official web portal to all federal, state and local government web resources and services.